Molokai, HI

2:04 PM HST on October 20, 2017 (GMT -1000)
Molokai

Weather History for PHMK - March, 2013

Change the Weather History Date:

Saturday, March 30, 2013

  Actual Average Record
Temperature  
Mean Temperature 70 °F -  
Max Temperature 75 °F 78 °F 84 °F (2017)
Min Temperature 64 °F 65 °F 58 °F (1972)
Cooling Degree Days 4    
Growing Degree Days 20 (Base 50)    
Moisture  
Dew Point 63 °F    
Average Humidity 82    
Maximum Humidity 93    
Minimum Humidity 68    
Precipitation  
Precipitation 0.01 in - - ()
Sea Level Pressure  
Sea Level Pressure 30.05 in    
Wind  
Wind Speed 6 mph (North)    
Max Wind Speed 14 mph    
Max Gust Speed 20 mph    
Visibility 10 miles    
Events Rain    
Averages and records for this station are not official NWS values.
T = Trace of Precipitation, MM = Missing Value Source: NWS Daily Summary

Daily Weather History Graph

Daily Weather History Graph

Search for Another Location

Airport or City:

Trip Planner

Search our weather history database for the weather conditions in past years. The results will help you decide how hot, cold, wet, or windy it might be!

Date:

Astronomy

Mar. 30, 2013 Rise Set
Actual Time 6:22 AM HST 6:42 PM HST
Civil Twilight 6:00 AM HST 7:04 PM HST
Nautical Twilight 5:34 AM HST 7:30 PM HST
Astronomical Twilight 5:08 AM HST 7:57 PM HST
Moon 10:30 PM HST (3/30) 8:56 AM HST (3/30)
Length of Visible Light 13h 04m
Length of Day
12h 19m
Waning Gibbous, 84% of the Moon is Illuminated
Mar 30
Waning Gibbous
Apr 2
Last Quarter
Apr 9
New
Apr 18
First Quarter
Apr 25
Full

Hourly Weather History & Observations

Time (HST) Temp. Dew Point Humidity Pressure Visibility Wind Dir Wind Speed Gust Speed Precip Events Conditions
12:54 AM 66.0 °F 63.0 °F 90% 30.06 in 10.0 mi WNW 3.5 mph - N/A   Overcast
1:54 AM 66.0 °F 64.0 °F 93% 30.05 in 10.0 mi North 3.5 mph - N/A   Overcast
2:54 AM 66.0 °F 63.0 °F 90% 30.04 in 10.0 mi Calm Calm - N/A   Overcast
3:54 AM 66.0 °F 64.0 °F 93% 30.02 in 10.0 mi North 3.5 mph - N/A   Mostly Cloudy
4:54 AM 66.0 °F 63.0 °F 90% 30.02 in 10.0 mi Calm Calm - N/A   Overcast
5:54 AM 64.9 °F 63.0 °F 93% 30.03 in 10.0 mi North 3.5 mph - N/A   Overcast
6:54 AM 66.0 °F 64.0 °F 93% 30.06 in 10.0 mi NW 5.8 mph - N/A   Overcast
7:54 AM 68.0 °F 64.9 °F 90% 30.08 in 10.0 mi North 5.8 mph - 0.00 in Rain Light Rain
8:54 AM 70.0 °F 64.9 °F 84% 30.09 in 10.0 mi North 8.1 mph - 0.00 in   Overcast
9:54 AM 70.0 °F 66.0 °F 87% 30.09 in 10.0 mi North 6.9 mph - N/A   Mostly Cloudy
10:54 AM 75.0 °F 64.0 °F 69% 30.08 in 10.0 mi North 9.2 mph - N/A   Scattered Clouds
11:54 AM 75.0 °F 64.0 °F 69% 30.07 in 10.0 mi NE 8.1 mph - N/A   Partly Cloudy
12:54 PM 75.0 °F 64.9 °F 71% 30.06 in 10.0 mi NNE 8.1 mph - N/A   Partly Cloudy
1:54 PM 73.9 °F 63.0 °F 68% 30.04 in 10.0 mi NNW 12.7 mph - N/A   Mostly Cloudy
2:54 PM 72.0 °F 63.0 °F 73% 30.02 in 10.0 mi NNW 10.4 mph - N/A   Scattered Clouds
3:54 PM 71.1 °F 63.0 °F 75% 30.01 in 10.0 mi North 10.4 mph - 0.01 in   Scattered Clouds
4:54 PM 73.0 °F 63.0 °F 71% 30.01 in 10.0 mi North 12.7 mph - N/A   Scattered Clouds
5:54 PM 71.1 °F 62.1 °F 73% 30.01 in 10.0 mi North 12.7 mph - N/A   Scattered Clouds
6:54 PM 69.1 °F 62.1 °F 78% 30.02 in 10.0 mi North 5.8 mph - N/A   Mostly Cloudy
7:20 PM 68.0 °F 62.6 °F 83% 30.02 in 10.0 mi NNE 4.6 mph - N/A   Scattered Clouds
7:54 PM 69.1 °F 63.0 °F 81% 30.04 in 10.0 mi North 9.2 mph - 0.00 in   Overcast
8:54 PM 66.9 °F 61.0 °F 81% 30.06 in 10.0 mi NNW 10.4 mph - N/A   Clear
9:54 PM 68.0 °F 62.1 °F 81% 30.07 in 10.0 mi NNW 10.4 mph - 0.00 in Rain Light Rain
10:54 PM 66.9 °F 62.1 °F 84% 30.07 in 10.0 mi NNW 13.8 mph 19.6 mph 0.00 in   Mostly Cloudy
11:06 PM 66.2 °F 60.8 °F 83% 30.05 in 10.0 mi NNW 9.2 mph - N/A   Mostly Cloudy
11:15 PM 66.2 °F 60.8 °F 83% 30.05 in 10.0 mi NNW 8.1 mph - N/A   Mostly Cloudy
11:54 PM 66.9 °F 61.0 °F 81% 30.06 in 10.0 mi NNW 9.2 mph - N/A   Mostly Cloudy